Location: Baia Mare
(47.6567°N, 23.5850°E)
Time: 07:28:29
(UTC+02:00)

ISS - Pass Details

Date: 01 October 2018
Orbit: 402 x 408 km, 51.6° (Epoch: 18 November)

Event Time Altitude Azimuth Distance (km) Brightness Sun altitude
Rises 21:33:13 0° 290° (WNW) 2,347 1.4 -25.1°
Reaches altitude 10° 21:35:21 10° 296° (WNW) 1,483 0.1 -25.4°
Enters shadow 21:37:09 28° 311° (NW) 818 -1.7 -25.7°
